Estación de Petorca

Ultimos registro cada 15 minutos 69
Estación Fecha / Hora Temperatura Humedad Lluvia Velocidad Dirección Radiación Presion
69 Petorca 09-05-2026 17:00 17,7 52,2 0 0 250 18,1 981,4
68 Petorca 09-05-2026 16:45 18,9 51,4 0 1 236 21,9 981,4
67 Petorca 09-05-2026 16:30 21,3 45,5 0 2 229 266,9 981,4
66 Petorca 09-05-2026 16:15 21,2 45,4 0 2,5 227 313,1 981,4
65 Petorca 09-05-2026 16:00 21,8 43,8 0 2,5 218 359,4 981,4
64 Petorca 09-05-2026 15:45 22 43,6 0 2 220 401,9 981,5
63 Petorca 09-05-2026 15:30 22,4 41,8 0 1,5 237 444,4 981,5
62 Petorca 09-05-2026 15:15 22,9 40,4 0 1 246 483,1 981,6
61 Petorca 09-05-2026 15:00 23,5 38,5 0 1,5 247 520,6 981,6
60 Petorca 09-05-2026 14:45 23,8 36,6 0 1 246 554,4 981,6
59 Petorca 09-05-2026 14:30 24,1 35,7 0 2 239 584,4 981,6
58 Petorca 09-05-2026 14:15 23,8 34,9 0 3 227 609,4 981,6
57 Petorca 09-05-2026 14:00 23,9 32,6 0 2,5 226 634,4 981,5
56 Petorca 09-05-2026 13:45 24,1 32,5 0 2 233 651,9 981,6
55 Petorca 09-05-2026 13:30 25,1 27,6 0 1,5 218 666,9 981,7
54 Petorca 09-05-2026 13:15 24,4 26,6 0 0,5 209 681,9 981,5
53 Petorca 09-05-2026 13:00 23,3 29,3 0 0,5 160 684,4 981,9
52 Petorca 09-05-2026 12:45 23,3 32,4 0 0 254 688,1 982,1
51 Petorca 09-05-2026 12:30 23,1 32 0 0 274 686,9 982,4
50 Petorca 09-05-2026 12:15 21,8 34,6 0 0 271 680,6 982,7
49 Petorca 09-05-2026 12:00 20,9 38 0 0 284 669,4 983,1
48 Petorca 09-05-2026 11:45 20,4 41,5 0 0 226 655,6 983,5
47 Petorca 09-05-2026 11:30 19,8 43 0 0 232 638,1 983,7
46 Petorca 09-05-2026 11:15 18,7 46,3 0 0 183 616,9 983,7
45 Petorca 09-05-2026 11:00 18 49,6 0 0 166 590,6 983,9
44 Petorca 09-05-2026 10:45 17,3 49,4 0 0 350 563,1 984,1
43 Petorca 09-05-2026 10:30 16,1 52,8 0 0 303 529,4 984,2
42 Petorca 09-05-2026 10:15 15,6 54,7 0 0 152 493,1 984,3
41 Petorca 09-05-2026 10:00 14,3 60,6 0 0 216 453,1 984,3
40 Petorca 09-05-2026 09:45 13,4 64,6 0 0 194 411,9 984,6
39 Petorca 09-05-2026 09:30 11,1 73,1 0 0 199 368,1 984,5
38 Petorca 09-05-2026 09:15 12 69,7 0 0 45 323,1 984,6
37 Petorca 09-05-2026 09:00 10,5 78,5 0 0 66 274,4 984,7
36 Petorca 09-05-2026 08:45 8,2 88,8 0 0 44 231,9 984,6
35 Petorca 09-05-2026 08:30 5,8 94,3 0 0 20 185,6 984,4
34 Petorca 09-05-2026 08:15 4,6 94,2 0 0 29 20,6 984,5
33 Petorca 09-05-2026 08:00 4,3 94 0 0 18 16,9 984,4
32 Petorca 09-05-2026 07:45 4,1 94 0 0 98 11,9 984,4
31 Petorca 09-05-2026 07:30 4,7 95 0 0,5 45 4,4 984,3
30 Petorca 09-05-2026 07:15 4,3 95,1 0 0 18 0,6 984,2
29 Petorca 09-05-2026 07:00 3,6 94,8 0 0 72 0,6 984,2
28 Petorca 09-05-2026 06:45 4 94,8 0 0 317 0,6 983,9
27 Petorca 09-05-2026 06:30 4,5 95,1 0 0 21 0,6 983,9
26 Petorca 09-05-2026 06:15 3,8 95,1 0 0 17 0,6 983,8
25 Petorca 09-05-2026 06:00 3,9 95 0 0 22 0,6 984
24 Petorca 09-05-2026 05:45 3,6 94,4 0 0 20 0,6 983,8
23 Petorca 09-05-2026 05:30 3,9 94,2 0 0 69 0,6 983,8
22 Petorca 09-05-2026 05:15 4,3 94,1 0 0 45 0,6 983,7
21 Petorca 09-05-2026 05:00 4,5 93,7 0 0 337 0,6 983,6
20 Petorca 09-05-2026 04:45 4,5 93,4 0 0 79 0,6 983,7
19 Petorca 09-05-2026 04:30 4,6 93,5 0 0 41 0,6 983,6
18 Petorca 09-05-2026 04:15 4,6 93,8 0 0 31 0,6 983,7
17 Petorca 09-05-2026 04:00 4,6 93,3 0 0 6 0,6 983,6
16 Petorca 09-05-2026 03:45 4,8 92,9 0 0 34 0,6 983,7
15 Petorca 09-05-2026 03:30 4,6 92,1 0 0 309 0,6 983,9
14 Petorca 09-05-2026 03:15 5,2 92,4 0 0 7 0,6 984,1
13 Petorca 09-05-2026 03:00 5 91,5 0 0 29 0,6 984,1
12 Petorca 09-05-2026 02:45 5,3 91,2 0 0 70 0,6 984,5
11 Petorca 09-05-2026 02:30 5,3 90,7 0 0 25 0,6 984,2
10 Petorca 09-05-2026 02:15 5,7 89,4 0 0 300 0,6 984,4
9 Petorca 09-05-2026 02:00 6,4 88,8 0 0 337 0,6 984,6
8 Petorca 09-05-2026 01:45 6,1 89,5 0 0 32 0,6 984,4
7 Petorca 09-05-2026 01:30 6,1 90,2 0 0 25 0,6 984,7
6 Petorca 09-05-2026 01:15 5,7 90,6 0 0 35 0,6 985
5 Petorca 09-05-2026 01:00 5,4 90 0 0 11 0,6 985,1
4 Petorca 09-05-2026 00:45 5,9 90,1 0 0 6 0,6 985,4
3 Petorca 09-05-2026 00:30 6 88,6 0 0 6 0,6 985,3
2 Petorca 09-05-2026 00:15 6,4 87,9 0 0 21 0,6 985,5
1 Petorca 09-05-2026 00:00 6,9 84,7 0 0 296 0,6 985,5